Location: Newark
(47.3150°N, 5.1150°E)
Time: 11:20:33
(UTC+00:00)

O/OREOS (USA 219) - Pass Details

Date: 20 December 2019
Orbit: 621 x 646 km, 72.0° (Epoch: 22 May)

Event Time Altitude Azimuth Distance (km) Brightness Sun altitude
Exits shadow 04:26:33 45° 59° (ENE) 872 ? -28.7°
Drops below altitude 10° 04:30:54 10° 132° (SE) 2,020 ? -28.0°
Sets 04:33:14 0° 139° (SE) 2,920 ? -27.6°
